Weather History for KOOA - October, 2011

Change the Weather History Date:

Thursday, October 20, 2011

  Actual Average (KOTM) Record (KOTM)
Temperature  
Mean Temperature 45 °F 51 °F  
Max Temperature 57 °F 62 °F 85 °F (1953)
Min Temperature 33 °F 40 °F 21 °F (1960)
Degree Days  
Heating Degree Days 20 14  
Month to date heating degree days 223  
Since 1 July heating degree days 344  
Cooling Degree Days 0 0  
Month to date cooling degree days 9  
Year to date cooling degree days 936  
Moisture  
Dew Point 31 °F    
Average Humidity 62    
Maximum Humidity 93    
Minimum Humidity 33    
Precipitation  
Precipitation 0.00 in 0.09 in 0.90 in (1929)
Month to date precipitation 1.84  
Year to date precipitation 32.33  
Sea Level Pressure  
Sea Level Pressure 29.91 in    
Wind  
Wind Speed 11 mph (NW)    
Max Wind Speed 22 mph    
Max Gust Speed 32 mph    
Visibility 10 miles    
Events      
T = Trace of Precipitation, MM = Missing Value Source: NWS Daily Summary

Daily Weather History Graph

Daily Weather History Graph

Search for Another Location

Airport or City:

Trip Planner

Search our weather history database for the weather conditions in past years. The results will help you decide how hot, cold, wet, or windy it might be!

Date:

Astronomy

Oct. 20, 2011 Rise Set
Actual Time 7:26 AM CDT 6:21 PM CDT
Civil Twilight 6:58 AM CDT 6:49 PM CDT
Nautical Twilight 6:26 AM CDT 7:21 PM CDT
Astronomical Twilight 5:54 AM CDT 7:53 PM CDT
Moon 12:08 AM CDT (10/20) 2:35 PM CDT (10/20)
Length of Visible Light 11h 50m
Length of Day
10h 54m
Last Quarter, 44% of the Moon is Illuminated
Oct 20
Last Quarter
Oct 26
New
Nov 2
First Quarter
Nov 10
Full
Nov 18
Last Quarter

Hourly Weather History & Observations

Time (CDT) Temp. Windchill Dew Point Humidity Pressure Visibility Wind Dir Wind Speed Gust Speed Precip Events Conditions
12:15 AM 42.8 °F 36.2 °F 32.0 °F 66% 29.91 in 10.0 mi NW 12.7 mph 21.9 mph N/A   Overcast
12:35 AM 42.8 °F 36.2 °F 32.0 °F 66% 29.91 in 10.0 mi NW 12.7 mph 18.4 mph N/A   Overcast
12:55 AM 41.0 °F 33.9 °F 32.0 °F 70% 29.91 in 10.0 mi NW 12.7 mph 16.1 mph N/A   Mostly Cloudy
1:15 AM 41.0 °F 34.3 °F 32.0 °F 70% 29.90 in 10.0 mi NW 11.5 mph 16.1 mph N/A   Scattered Clouds
1:35 AM 39.2 °F 32.5 °F 32.0 °F 75% 29.90 in 10.0 mi NW 10.4 mph 16.1 mph N/A   Mostly Cloudy
1:55 AM 41.0 °F 34.7 °F 32.0 °F 70% 29.90 in 10.0 mi NW 10.4 mph 18.4 mph N/A   Overcast
2:15 AM 41.0 °F 34.3 °F 32.0 °F 70% 29.90 in 10.0 mi NW 11.5 mph 17.3 mph N/A   Overcast
2:35 AM 41.0 °F 33.9 °F 32.0 °F 70% 29.89 in 10.0 mi NW 12.7 mph 17.3 mph N/A   Mostly Cloudy
2:55 AM 39.2 °F 33.0 °F 32.0 °F 75% 29.89 in 10.0 mi NW 9.2 mph - N/A   Scattered Clouds
3:15 AM 39.2 °F 33.0 °F 32.0 °F 75% 29.88 in 10.0 mi NW 9.2 mph - N/A   Clear
3:35 AM 37.4 °F 32.1 °F 32.0 °F 81% 29.88 in 10.0 mi NW 6.9 mph - N/A   Clear
3:55 AM 37.4 °F 31.4 °F 32.0 °F 81% 29.88 in 10.0 mi NW 8.1 mph - N/A   Clear
4:15 AM 37.4 °F 32.1 °F 32.0 °F 81% 29.88 in 10.0 mi NW 6.9 mph - N/A   Clear
4:35 AM 37.4 °F 32.1 °F 32.0 °F 81% 29.87 in 10.0 mi NW 6.9 mph - N/A   Clear
5:15 AM 35.6 °F 30.7 °F 32.0 °F 87% 29.87 in 10.0 mi NW 5.8 mph - N/A   Clear
5:35 AM 35.6 °F 28.6 °F 32.0 °F 87% 29.87 in 10.0 mi WNW 9.2 mph - N/A   Clear
6:15 AM 35.6 °F 28.6 °F 32.0 °F 87% 29.88 in 10.0 mi WNW 9.2 mph - N/A   Clear
6:35 AM 35.6 °F 28.0 °F 32.0 °F 87% 29.89 in 10.0 mi NW 10.4 mph - N/A   Clear
6:55 AM 33.8 °F 25.8 °F 32.0 °F 93% 29.89 in 10.0 mi NW 10.4 mph - N/A   Clear
7:15 AM 33.8 °F 27.0 °F 32.0 °F 93% 29.89 in 10.0 mi NW 8.1 mph - N/A   Clear
7:35 AM 33.8 °F 27.0 °F 32.0 °F 93% 29.90 in 10.0 mi NW 8.1 mph - N/A   Clear
7:55 AM 33.8 °F 26.4 °F 32.0 °F 93% 29.89 in 10.0 mi WNW 9.2 mph - N/A   Clear
8:15 AM 35.6 °F 28.6 °F 32.0 °F 87% 29.90 in 10.0 mi WNW 9.2 mph - N/A   Clear
8:35 AM 35.6 °F 28.0 °F 32.0 °F 87% 29.91 in 10.0 mi WNW 10.4 mph 16.1 mph N/A   Clear
8:55 AM 37.4 °F 29.3 °F 32.0 °F 81% 29.91 in 10.0 mi WNW 12.7 mph 17.3 mph N/A   Clear
9:15 AM 39.2 °F 31.6 °F 32.0 °F 75% 29.91 in 10.0 mi NW 12.7 mph 18.4 mph N/A   Clear
9:35 AM 41.0 °F 33.5 °F 32.0 °F 70% 29.91 in 10.0 mi NW 13.8 mph 20.7 mph N/A   Clear
9:55 AM 42.8 °F 36.2 °F 32.0 °F 66% 29.92 in 10.0 mi NW 12.7 mph 21.9 mph N/A   Clear
10:15 AM 42.8 °F 35.8 °F 32.0 °F 66% 29.92 in 10.0 mi NW 13.8 mph 20.7 mph N/A   Scattered Clouds
10:35 AM 44.6 °F 37.8 °F 32.0 °F 61% 29.91 in 10.0 mi NW 15.0 mph 21.9 mph N/A   Scattered Clouds
10:55 AM 46.4 °F 40.7 °F 32.0 °F 57% 29.91 in 10.0 mi NW 12.7 mph 18.4 mph N/A   Scattered Clouds
11:15 AM 48.2 °F - 32.0 °F 54% 29.91 in 10.0 mi NW 16.1 mph 24.2 mph N/A   Scattered Clouds
11:35 AM 50.0 °F - 32.0 °F 50% 29.91 in 10.0 mi NW 13.8 mph 26.5 mph N/A   Scattered Clouds
11:55 AM 50.0 °F - 32.0 °F 50% 29.90 in 10.0 mi NW 16.1 mph 26.5 mph N/A   Scattered Clouds
12:15 PM 50.0 °F - 32.0 °F 50% 29.90 in 10.0 mi WNW 15.0 mph 26.5 mph N/A   Mostly Cloudy
12:35 PM 50.0 °F - 32.0 °F 50% 29.90 in 10.0 mi NNW 17.3 mph 25.3 mph N/A   Mostly Cloudy
12:55 PM 51.8 °F - 32.0 °F 47% 29.90 in 10.0 mi NW 17.3 mph 25.3 mph N/A   Scattered Clouds
1:35 PM 51.8 °F - 32.0 °F 47% 29.89 in 10.0 mi NW 20.7 mph 26.5 mph N/A   Scattered Clouds
1:55 PM 51.8 °F - 32.0 °F 47% 29.88 in 10.0 mi NW 13.8 mph 26.5 mph N/A   Scattered Clouds
2:15 PM 55.4 °F - 32.0 °F 41% 29.88 in 10.0 mi NW 18.4 mph 25.3 mph N/A   Scattered Clouds
2:35 PM 53.6 °F - 32.0 °F 44% 29.88 in 10.0 mi NW 16.1 mph 25.3 mph N/A   Scattered Clouds
2:55 PM 55.4 °F - 32.0 °F 41% 29.88 in 10.0 mi NW 19.6 mph 26.5 mph N/A   Scattered Clouds
3:15 PM 55.4 °F - 32.0 °F 41% 29.89 in 10.0 mi WNW 21.9 mph 32.2 mph N/A   Scattered Clouds
3:35 PM 55.4 °F - 30.2 °F 38% 29.89 in 10.0 mi WNW 21.9 mph 27.6 mph N/A   Clear
3:55 PM 55.4 °F - 28.4 °F 36% 29.89 in 10.0 mi NW 18.4 mph 27.6 mph N/A   Clear
4:15 PM 57.2 °F - 28.4 °F 33% 29.90 in 10.0 mi NW 9.2 mph 24.2 mph N/A   Clear
4:35 PM 55.4 °F - 28.4 °F 36% 29.90 in 10.0 mi NW 16.1 mph 20.7 mph N/A   Clear
4:55 PM 55.4 °F - 28.4 °F 36% 29.90 in 10.0 mi NW 15.0 mph 20.7 mph N/A   Clear
5:15 PM 55.4 °F - 28.4 °F 36% 29.90 in 10.0 mi NW 15.0 mph 20.7 mph N/A   Clear
5:35 PM 55.4 °F - 26.6 °F 33% 29.91 in 10.0 mi NW 12.7 mph - N/A   Clear
5:55 PM 53.6 °F - 28.4 °F 38% 29.92 in 10.0 mi WNW 9.2 mph - N/A   Clear
6:15 PM 51.8 °F - 26.6 °F 38% 29.92 in 10.0 mi WNW 8.1 mph - N/A   Clear
6:35 PM 50.0 °F - 28.4 °F 43% 29.93 in 10.0 mi NW 6.9 mph - N/A   Clear
6:55 PM 50.0 °F - 28.4 °F 43% 29.94 in 10.0 mi WNW 8.1 mph - N/A   Clear
7:15 PM 48.2 °F - 28.4 °F 46% 29.95 in 10.0 mi WNW 5.8 mph - N/A   Clear
7:35 PM 46.4 °F 43.5 °F 28.4 °F 50% 29.96 in 10.0 mi WNW 5.8 mph - N/A   Clear
7:55 PM 44.6 °F 41.4 °F 28.4 °F 53% 29.96 in 10.0 mi WNW 5.8 mph - N/A   Clear
8:15 PM 42.8 °F - 28.4 °F 57% 29.96 in 10.0 mi Calm Calm - N/A   Clear
8:35 PM 42.8 °F 40.1 °F 28.4 °F 57% 29.97 in 10.0 mi WNW 4.6 mph - N/A   Clear
8:55 PM 44.6 °F 42.2 °F 30.2 °F 57% 29.97 in 10.0 mi WNW 4.6 mph - N/A   Clear
9:15 PM 42.8 °F 40.1 °F 30.2 °F 61% 29.98 in 10.0 mi NW 4.6 mph - N/A   Clear
9:35 PM 42.8 °F 40.1 °F 30.2 °F 61% 29.99 in 10.0 mi NW 4.6 mph - N/A   Clear
9:55 PM 41.0 °F 39.0 °F 30.2 °F 65% 30.00 in 10.0 mi WNW 3.5 mph - N/A   Clear
10:15 PM 41.0 °F - 28.4 °F 61% 30.00 in 10.0 mi Calm Calm - N/A   Clear
10:35 PM 37.4 °F 34.9 °F 28.4 °F 70% 30.01 in 10.0 mi West 3.5 mph - N/A   Clear
10:55 PM 35.6 °F - 28.4 °F 75% 30.01 in 10.0 mi Calm Calm - N/A   Clear
11:15 PM 35.6 °F - 28.4 °F 75% 30.01 in 10.0 mi Calm Calm - N/A   Clear
11:35 PM 35.6 °F - 28.4 °F 75% 30.02 in 10.0 mi Calm Calm - N/A   Clear
11:55 PM 33.8 °F 29.6 °F 28.4 °F 81% 30.02 in 10.0 mi West 4.6 mph - N/A   Clear